Location: Roland
(31.1349°N, 85.4372°W)
Time: 03:43:31
(UTC+00:00)

Courier 1B - Pass Details

Date: 19 April 2021
Orbit: 962 x 1209 km, 28.3° (Epoch: 07 May)

Event Time Altitude Azimuth Distance (km) Brightness Sun altitude
Rises 23:32:07 0° 273° (W) 3,640 12.9 7.8°
Reaches altitude 10° 23:34:59 10° 263° (W) 2,705 11.7 7.1°
Maximum altitude 23:40:42 33° 202° (SSW) 1,610 8.9 5.9°
Drops below altitude 10° 23:46:38 10° 141° (SE) 2,809 9.5 4.7°
Sets 23:49:40 0° 132° (SE) 3,800 10.1 4.0°
